TimeCDT,TemperatureF,Dew PointF,Humidity,Sea Level PressureIn,VisibilityMPH,Wind Direction,Wind SpeedMPH,Gust SpeedMPH,PrecipitationIn,Events,Conditions,WindDirDegrees,DateUTC
12:53 AM,66.0,51.1,59,29.91,10.0,NW,6.9,-,N/A,,Clear,310,2012-10-02 05:53:00
2:53 AM,64.0,52.0,65,29.92,10.0,NNW,4.6,-,N/A,,Clear,340,2012-10-02 07:53:00
3:53 AM,64.0,52.0,65,29.93,10.0,NNW,8.1,-,N/A,,Overcast,330,2012-10-02 08:53:00
4:53 AM,64.0,52.0,65,29.94,10.0,NNW,9.2,-,N/A,,Scattered Clouds,340,2012-10-02 09:53:00
5:53 AM,62.1,52.0,70,29.95,10.0,NNW,6.9,-,N/A,,Clear,340,2012-10-02 10:53:00
6:53 AM,61.0,52.0,72,29.97,10.0,NW,4.6,-,N/A,,Clear,310,2012-10-02 11:53:00
7:53 AM,60.1,53.1,78,29.98,10.0,WNW,5.8,-,N/A,,Clear,290,2012-10-02 12:53:00
8:53 AM,64.9,52.0,63,30.00,10.0,NNW,12.7,-,N/A,,Clear,340,2012-10-02 13:53:00
9:53 AM,66.9,51.1,57,30.01,10.0,North,11.5,20.7,N/A,,Clear,350,2012-10-02 14:53:00
10:53 AM,71.1,50.0,47,30.00,10.0,NNW,16.1,21.9,N/A,,Clear,330,2012-10-02 15:53:00
11:53 AM,73.0,48.9,42,30.00,10.0,North,12.7,21.9,N/A,,Clear,350,2012-10-02 16:53:00
12:53 PM,73.9,52.0,46,29.99,10.0,North,9.2,-,N/A,,Partly Cloudy,350,2012-10-02 17:53:00
1:53 PM,75.0,51.1,43,29.96,10.0,Variable,6.9,-,N/A,,Partly Cloudy,0,2012-10-02 18:53:00
2:53 PM,77.0,51.1,40,29.94,10.0,North,8.1,-,N/A,,Partly Cloudy,10,2012-10-02 19:53:00
3:53 PM,78.1,51.1,39,29.93,10.0,North,4.6,-,N/A,,Clear,350,2012-10-02 20:53:00
4:53 PM,75.0,51.1,43,29.93,10.0,NNW,4.6,-,N/A,,Clear,330,2012-10-02 21:53:00
5:53 PM,75.0,50.0,41,29.93,10.0,North,4.6,-,N/A,,Partly Cloudy,360,2012-10-02 22:53:00
7:53 PM,69.1,54.0,58,29.94,10.0,Calm,Calm,-,N/A,,Clear,0,2012-10-03 00:53:00
8:53 PM,66.0,54.0,65,29.96,10.0,Calm,Calm,-,N/A,,Clear,0,2012-10-03 01:53:00
9:53 PM,64.0,54.0,70,29.97,10.0,Calm,Calm,-,N/A,,Clear,0,2012-10-03 02:53:00
10:53 PM,61.0,54.0,78,29.98,10.0,NNE,3.5,-,N/A,,Clear,20,2012-10-03 03:53:00
11:53 PM,60.1,53.1,78,29.98,10.0,Calm,Calm,-,N/A,,Clear,0,2012-10-03 04:53:00